DB0RV-13 Weather Reports


Display with metric or nautical units.
time (UTC)temp
F
wind
direction
speed
MPH
gust
MPH
rain 1hr
in
rain 24hr
in
rain mn
in
humidity
%
barometer
mb
20260904061002 63 266 3.0 0.0 0.00 0.00 0.00 69 1020.2
20260904060501 63 243 3.0 0.0 0.00 0.00 0.00 71 1020.2
20260904060002 62 224 2.0 0.0 0.00 0.00 0.00 72 1020.1
20260904055501 62 266 1.0 0.0 0.00 0.00 0.00 72 1020.2
20260904055002 62 251 2.0 0.0 0.00 0.00 0.00 71 1020.3
20260904054501 61 259 4.0 0.0 0.00 0.00 0.00 72 1020.1
20260904054001 61 244 3.0 0.0 0.00 0.00 0.00 72 1020.1
20260904053502 61 244 3.0 0.0 0.00 0.00 0.00 73 1020.1
20260904053001 60 239 2.0 0.0 0.00 0.00 0.00 73 1020.2
20260904052502 60 245 3.0 0.0 0.00 0.00 0.00 73 1020.1
20260904052001 60 273 4.0 0.0 0.00 0.00 0.00 74 1020.1
20260904051502 60 240 4.0 0.0 0.00 0.00 0.00 74 1020.0
20260904051001 60 253 2.0 0.0 0.00 0.00 0.00 74 1020.1
20260904050502 60 250 4.0 0.0 0.00 0.00 0.00 74 1020.1
20260904050001 60 239 3.0 0.0 0.00 0.00 0.00 73 1020.3
20260904045501 60 247 2.0 0.0 0.00 0.00 0.00 73 1020.2
20260904045001 60 275 2.0 0.0 0.00 0.00 0.00 74 1020.2
20260904044501 60 234 1.0 0.0 0.00 0.00 0.00 74 1020.3
20260904044002 60 292 3.0 0.0 0.00 0.00 0.00 74 1020.4
20260904043502 60 277 1.0 0.0 0.00 0.00 0.00 75 1020.4
20260904043002 60 304 1.0 0.0 0.00 0.00 0.00 74 1020.4
20260904042501 59 250 3.0 0.0 0.00 0.00 0.00 76 1020.4
20260904042002 59 242 1.0 0.0 0.00 0.00 0.00 78 1020.5
20260904041501 59 200 2.0 0.0 0.00 0.00 0.00 77 1020.5
20260904041001 60 242 2.0 0.0 0.00 0.00 0.00 75 1020.6
20260904040502 61 262 2.0 0.0 0.00 0.00 0.00 73 1020.7
20260904040001 60 275 0.0 0.0 0.00 0.00 0.00 74 1020.8
20260904035501 61 276 1.0 0.0 0.00 0.00 0.00 73 1020.8
20260904035002 61 275 1.0 0.0 0.00 0.00 0.00 73 1020.8
20260904034502 61 323 2.0 0.0 0.00 0.00 0.00 73 1020.9
20260904034001 60 243 1.0 0.0 0.00 0.00 0.00 75 1020.6
20260904033502 61 252 2.0 0.0 0.00 0.00 0.00 74 1020.7
20260904033001 61 242 3.0 0.0 0.00 0.00 0.00 74 1020.6
20260904032501 61 272 2.0 0.0 0.00 0.00 0.00 74 1020.7
20260904032002 62 260 4.0 0.0 0.00 0.00 0.00 73 1020.8
20260904031501 62 231 1.0 0.0 0.00 0.00 0.00 73 1020.8
20260904031001 62 244 2.0 0.0 0.00 0.00 0.00 73 1020.9
20260904030502 62 267 3.0 0.0 0.00 0.00 0.00 73 1020.8
20260904030001 61 262 3.0 0.0 0.00 0.00 0.00 74 1020.8
20260904025501 62 255 3.0 0.0 0.00 0.00 0.00 74 1020.8
20260904025002 62 240 2.0 0.0 0.00 0.00 0.00 74 1020.8
20260904024501 62 252 3.0 0.0 0.00 0.00 0.00 74 1020.9
20260904024001 62 241 4.0 0.0 0.00 0.00 0.00 74 1020.9
20260904023502 62 245 2.0 0.0 0.00 0.00 0.00 74 1021.0
20260904023001 61 256 3.0 0.0 0.00 0.00 0.00 75 1021.0
20260904022502 62 240 5.0 0.0 0.00 0.00 0.00 75 1021.0
20260904022002 62 238 5.0 0.0 0.00 0.00 0.00 75 1021.0
20260904021501 62 241 2.0 0.0 0.00 0.00 0.00 74 1021.0
20260904021002 62 244 4.0 0.0 0.00 0.00 0.00 74 1021.2
20260904020502 62 246 4.0 0.0 0.00 0.00 0.00 74 1021.1
20260904020001 62 244 3.0 0.0 0.00 0.00 0.00 74 1021.0
20260904015501 62 254 4.0 0.0 0.00 0.00 0.00 74 1021.1
20260904015002 62 217 4.0 0.0 0.00 0.00 0.00 74 1021.0
20260904014501 62 239 4.0 0.0 0.00 0.00 0.00 74 1021.0
20260904014002 62 239 5.0 0.0 0.00 0.00 0.00 74 1021.1
20260904013502 62 239 4.0 0.0 0.00 0.00 0.00 74 1021.2
20260904013001 62 239 3.0 0.0 0.00 0.00 0.00 74 1021.3
20260904012501 63 237 5.0 0.0 0.00 0.00 0.00 74 1021.4
20260904012002 62 241 3.0 0.0 0.00 0.00 0.00 75 1021.4
20260904011501 62 244 3.0 0.0 0.00 0.00 0.00 75 1021.4
20260904011002 63 246 4.0 0.0 0.00 0.00 0.00 74 1021.4
20260904010502 63 252 4.0 0.0 0.00 0.00 0.00 74 1021.4
20260904010001 62 233 4.0 0.0 0.00 0.00 0.00 75 1021.4
20260904005501 62 239 5.0 0.0 0.00 0.00 0.00 74 1021.5
20260904005002 63 248 3.0 0.0 0.00 0.00 0.00 74 1021.5
20260904004501 63 244 3.0 0.0 0.00 0.00 0.00 74 1021.5
20260904004001 63 245 4.0 0.0 0.00 0.00 0.00 74 1021.6
20260904003502 63 274 2.0 0.0 0.00 0.00 0.00 74 1021.6
20260904003001 63 253 3.0 0.0 0.00 0.00 0.00 74 1021.5
20260904002502 63 243 3.0 0.0 0.00 0.00 0.00 74 1021.6
20260904002002 63 244 4.0 0.0 0.00 0.00 0.00 74 1021.5
20260904001501 63 241 4.0 0.0 0.00 0.00 0.00 74 1021.5
20260904001001 63 239 4.0 0.0 0.00 0.00 0.00 74 1021.6
20260904000502 62 252 2.0 0.0 0.00 0.00 0.00 75 1021.6
20260904000001 62 243 4.0 0.0 0.00 0.00 0.00 75 1021.7
20260903235501 62 247 3.0 0.0 0.00 0.00 0.00 75 1021.6
20260903235002 62 225 4.0 0.0 0.00 0.00 0.00 74 1021.7
20260903234501 63 240 4.0 0.0 0.00 0.00 0.00 74 1021.7
20260903234001 63 251 1.0 0.0 0.00 0.00 0.00 73 1021.7
20260903233502 63 240 4.0 0.0 0.00 0.00 0.00 73 1021.7
20260903233002 63 261 2.0 0.0 0.00 0.00 0.00 73 1021.7
20260903232501 63 245 4.0 0.0 0.00 0.00 0.00 73 1021.7
20260903232002 63 244 2.0 0.0 0.00 0.00 0.00 73 1021.8
20260903231502 63 235 3.0 0.0 0.00 0.00 0.00 73 1021.7
20260903231001 63 240 4.0 0.0 0.00 0.00 0.00 74 1021.8
20260903230502 63 244 3.0 0.0 0.00 0.00 0.00 74 1021.8
20260903230002 64 243 4.0 0.0 0.00 0.00 0.00 74 1021.8
20260903225501 64 239 4.0 0.0 0.00 0.00 0.00 74 1021.9
20260903225002 63 243 2.0 0.0 0.00 0.00 0.00 75 1021.9
20260903224502 63 270 2.0 0.0 0.00 0.00 0.00 76 1022.0
20260903224001 62 230 2.0 0.0 0.00 0.00 0.00 77 1022.0
20260903223502 62 176 1.0 0.0 0.00 0.00 0.00 78 1022.0
20260903223002 63 188 0.0 0.0 0.00 0.00 0.00 75 1022.0
20260903222501 64 196 4.0 0.0 0.00 0.00 0.00 73 1022.0
20260903222002 64 194 3.0 0.0 0.00 0.00 0.00 73 1021.9
20260903221502 64 161 4.0 0.0 0.00 0.00 0.00 72 1022.0
20260903221001 65 234 2.0 0.0 0.00 0.00 0.00 69 1022.1
20260903220502 65 264 3.0 0.0 0.00 0.00 0.00 69 1022.1
20260903220002 66 246 2.0 0.0 0.00 0.00 0.00 69 1022.0
20260903215501 66 260 2.0 0.0 0.00 0.00 0.00 69 1022.0
20260903215002 66 260 2.0 0.0 0.00 0.00 0.00 69 1022.0
20260903214502 66 256 2.0 0.0 0.00 0.00 0.00 69 1021.9
20260903214001 66 245 1.0 0.0 0.00 0.00 0.00 68 1021.8
20260903213502 66 242 2.0 0.0 0.00 0.00 0.00 68 1021.8
20260903213002 67 240 3.0 0.0 0.00 0.00 0.00 67 1021.8
20260903212501 67 242 2.0 0.0 0.00 0.00 0.00 68 1021.7
20260903212002 66 242 2.0 0.0 0.00 0.00 0.00 69 1021.8
20260903211502 66 293 1.0 0.0 0.00 0.00 0.00 68 1021.8
20260903211001 66 237 2.0 0.0 0.00 0.00 0.00 68 1021.8
20260903210502 66 220 2.0 0.0 0.00 0.00 0.00 68 1021.7
20260903210002 66 0 0.0 0.0 0.00 0.00 0.00 69 1021.9
20260903205501 66 174 1.0 0.0 0.00 0.00 0.00 69 1021.8
20260903205002 67 179 2.0 0.0 0.00 0.00 0.00 68 1021.8
20260903204503 67 185 2.0 0.0 0.00 0.00 0.00 67 1021.7
20260903204001 67 192 3.0 0.0 0.00 0.00 0.00 66 1021.8
20260903203502 66 193 2.0 0.0 0.00 0.00 0.00 68 1021.8
20260903203002 68 289 4.0 0.0 0.00 0.00 0.00 64 1021.9
20260903202501 68 299 3.0 0.0 0.00 0.00 0.00 62 1021.8
20260903202002 65 292 4.0 0.0 0.00 0.00 0.00 72 1021.8
20260903201502 66 317 4.0 0.0 0.00 0.00 0.00 70 1021.8
20260903201001 69 297 2.0 0.0 0.00 0.00 0.00 61 1021.7
20260903200502 69 262 1.0 0.0 0.00 0.00 0.00 60 1021.6
20260903200002 70 242 2.0 0.0 0.00 0.00 0.00 60 1021.6
20260903195501 69 250 4.0 0.0 0.00 0.00 0.00 61 1021.6
20260903195002 69 253 2.0 0.0 0.00 0.00 0.00 61 1021.5
20260903194502 70 248 2.0 0.0 0.00 0.00 0.00 60 1021.4
20260903194001 70 260 3.0 0.0 0.00 0.00 0.00 59 1021.3
20260903193502 70 258 2.0 0.0 0.00 0.00 0.00 60 1021.3
20260903193002 70 245 2.0 0.0 0.00 0.00 0.00 61 1021.3
20260903192501 70 280 3.0 0.0 0.00 0.00 0.00 60 1021.3
20260903192002 70 270 4.0 0.0 0.00 0.00 0.00 60 1021.3
20260903191502 70 282 4.0 0.0 0.00 0.00 0.00 61 1021.3
20260903191001 71 282 2.0 0.0 0.00 0.00 0.00 60 1021.2
20260903190502 71 279 3.0 0.0 0.00 0.00 0.00 58 1021.2
20260903190002 71 282 4.0 0.0 0.00 0.00 0.00 57 1021.2
20260903185501 70 272 3.0 0.0 0.00 0.00 0.00 58 1021.1
20260903185002 70 278 2.0 0.0 0.00 0.00 0.00 58 1021.1
20260903184502 71 235 2.0 0.0 0.00 0.00 0.00 58 1021.1
20260903184001 71 269 3.0 0.0 0.00 0.00 0.00 57 1021.2
20260903183502 71 272 3.0 0.0 0.00 0.00 0.00 57 1021.1
20260903183002 70 262 2.0 0.0 0.00 0.00 0.00 58 1021.2
20260903182501 70 263 2.0 0.0 0.00 0.00 0.00 58 1021.0
20260903182003 71 243 2.0 0.0 0.00 0.00 0.00 58 1020.9
20260903181501 70 269 2.0 0.0 0.00 0.00 0.00 59 1020.9
20260903181002 70 240 3.0 0.0 0.00 0.00 0.00 58 1020.8
20260903180501 70 219 3.0 0.0 0.00 0.00 0.00 59 1020.7
20260903180001 71 215 4.0 0.0 0.00 0.00 0.00 56 1020.6
20260903175502 72 207 6.0 0.0 0.00 0.00 0.00 55 1020.5
20260903175002 71 221 4.0 0.0 0.00 0.00 0.00 56 1020.6
20260903174501 72 240 3.0 0.0 0.00 0.00 0.00 54 1020.7
20260903174001 72 225 4.0 0.0 0.00 0.00 0.00 53 1020.7
20260903173502 72 235 2.0 0.0 0.00 0.00 0.00 53 1020.7
20260903173002 72 225 4.0 0.0 0.00 0.00 0.00 52 1020.7
20260903172502 73 232 4.0 0.0 0.00 0.00 0.00 50 1020.6
20260903172001 73 242 3.0 0.0 0.00 0.00 0.00 49 1020.6
20260903171502 74 257 3.0 0.0 0.00 0.00 0.00 47 1020.5
20260903171001 74 263 3.0 0.0 0.00 0.00 0.00 48 1020.6
20260903170502 74 236 3.0 0.0 0.00 0.00 0.00 45 1020.5
20260903170001 74 242 4.0 0.0 0.00 0.00 0.00 44 1020.5
20260903165501 75 260 3.0 0.0 0.00 0.00 0.00 44 1020.6
20260903165001 75 269 4.0 0.0 0.00 0.00 0.00 43 1020.6
20260903164501 75 281 6.0 0.0 0.00 0.00 0.00 43 1020.6
20260903164002 75 247 3.0 0.0 0.00 0.00 0.00 42 1020.6
20260903163501 75 265 6.0 0.0 0.00 0.00 0.00 41 1020.6
20260903163002 75 0 0.0 0.0 0.00 0.00 0.00 42 1020.6
20260903162501 75 278 4.0 0.0 0.00 0.00 0.00 41 1020.7
20260903162002 75 249 3.0 0.0 0.00 0.00 0.00 41 1020.7
20260903161501 75 256 6.0 0.0 0.00 0.00 0.00 41 1020.7
20260903161001 75 230 6.0 0.0 0.00 0.00 0.00 40 1020.7
20260903160501 75 265 7.0 0.0 0.00 0.00 0.00 40 1020.7
20260903160002 75 256 4.0 0.0 0.00 0.00 0.00 40 1020.7
20260903155502 75 267 3.0 0.0 0.00 0.00 0.00 40 1020.8
20260903155001 75 258 7.0 0.0 0.00 0.00 0.00 39 1020.7
20260903154502 75 239 1.0 0.0 0.00 0.00 0.00 40 1020.8
20260903154001 75 287 6.0 0.0 0.00 0.00 0.00 40 1020.8
20260903153502 75 330 0.0 0.0 0.00 0.00 0.00 41 1020.8
20260903153003 75 223 2.0 0.0 0.00 0.00 0.00 41 1020.7
20260903152502 75 253 5.0 0.0 0.00 0.00 0.00 39 1020.8
20260903152001 75 249 6.0 0.0 0.00 0.00 0.00 38 1020.7
20260903151502 75 257 7.0 0.0 0.00 0.00 0.00 39 1020.7
20260903151002 76 279 6.0 0.0 0.00 0.00 0.00 39 1020.9
20260903150501 76 240 8.0 0.0 0.00 0.00 0.00 39 1020.8
20260903150002 76 253 7.0 0.0 0.00 0.00 0.00 41 1020.8
20260903145502 77 241 2.0 0.0 0.00 0.00 0.00 37 1021.0
20260903145002 76 295 4.0 0.0 0.00 0.00 0.00 38 1020.9
20260903144501 77 289 5.0 0.0 0.00 0.00 0.00 38 1021.0
20260903144002 76 253 4.0 0.0 0.00 0.00 0.00 40 1020.9
20260903143501 76 244 8.0 0.0 0.00 0.00 0.00 41 1020.9
20260903143002 76 256 4.0 0.0 0.00 0.00 0.00 40 1021.0
20260903142502 76 246 7.0 0.0 0.00 0.00 0.00 42 1021.0
20260903142001 75 272 7.0 0.0 0.00 0.00 0.00 41 1021.0
20260903141502 75 229 8.0 0.0 0.00 0.00 0.00 42 1021.1
20260903141001 75 261 6.0 0.0 0.00 0.00 0.00 41 1021.1
20260903140502 75 255 4.0 0.0 0.00 0.00 0.00 42 1021.2
20260903140001 75 245 6.0 0.0 0.00 0.00 0.00 43 1021.2
20260903135502 75 254 5.0 0.0 0.00 0.00 0.00 45 1021.5
20260903135001 75 261 1.0 0.0 0.00 0.00 0.00 42 1021.5
20260903134502 75 246 3.0 0.0 0.00 0.00 0.00 43 1021.5
20260903134002 76 271 3.0 0.0 0.00 0.00 0.00 42 1021.4
20260903133502 75 252 3.0 0.0 0.00 0.00 0.00 41 1021.2
20260903133002 75 246 4.0 0.0 0.00 0.00 0.00 42 1021.3
20260903132501 74 245 3.0 0.0 0.00 0.00 0.00 42 1021.2
20260903132002 74 271 4.0 0.0 0.00 0.00 0.00 44 1021.2
20260903131501 74 271 9.0 0.0 0.00 0.00 0.00 44 1021.3
20260903131002 74 278 11.0 0.0 0.00 0.00 0.00 46 1021.2
20260903130501 73 243 4.0 0.0 0.00 0.00 0.00 47 1021.1
20260903130002 73 271 8.0 0.0 0.00 0.00 0.00 46 1021.3
20260903125502 73 295 4.0 0.0 0.00 0.00 0.00 44 1021.3
20260903125002 73 274 1.0 0.0 0.00 0.00 0.00 43 1021.3
20260903124502 73 265 7.0 0.0 0.00 0.00 0.00 43 1021.4
20260903124001 73 264 3.0 0.0 0.00 0.00 0.00 45 1021.3
20260903123502 73 280 10.0 0.0 0.00 0.00 0.00 44 1021.4
20260903123001 73 274 6.0 0.0 0.00 0.00 0.00 47 1021.3
20260903122502 73 237 7.0 0.0 0.00 0.00 0.00 49 1021.4
20260903122001 73 267 3.0 0.0 0.00 0.00 0.00 49 1021.3
20260903121502 73 238 4.0 0.0 0.00 0.00 0.00 48 1021.5
20260903121001 73 239 3.0 0.0 0.00 0.00 0.00 47 1021.6
20260903120502 72 237 7.0 0.0 0.00 0.00 0.00 46 1021.7
20260903120002 72 300 6.0 0.0 0.00 0.00 0.00 49 1021.8
20260903115502 73 276 7.0 0.0 0.00 0.00 0.00 49 1021.9
20260903115002 73 280 14.0 0.0 0.00 0.00 0.00 50 1021.8
20260903114501 73 254 7.0 0.0 0.00 0.00 0.00 51 1021.8
20260903114002 73 260 7.0 0.0 0.00 0.00 0.00 50 1021.8
20260903113502 73 253 14.0 0.0 0.00 0.00 0.00 50 1021.7
20260903113002 72 240 10.0 0.0 0.00 0.00 0.00 50 1021.9
20260903112501 73 249 13.0 0.0 0.00 0.00 0.00 50 1021.8
20260903112002 74 232 8.0 0.0 0.00 0.00 0.00 50 1022.0
20260903111501 73 284 8.0 0.0 0.00 0.00 0.00 50 1022.0
20260903111002 73 262 3.0 0.0 0.00 0.00 0.00 50 1021.9
20260903110502 73 262 8.0 0.0 0.00 0.00 0.00 49 1022.0
20260903110001 71 241 8.0 0.0 0.00 0.00 0.00 50 1022.0
20260903105502 72 253 3.0 0.0 0.00 0.00 0.00 49 1022.0
20260903105001 72 258 8.0 0.0 0.00 0.00 0.00 50 1021.9
20260903104502 72 261 8.0 0.0 0.00 0.00 0.00 50 1022.1
20260903104001 72 243 8.0 0.0 0.00 0.00 0.00 51 1022.1
20260903103503 71 268 9.0 0.0 0.00 0.00 0.00 51 1021.9
20260903103001 71 243 7.0 0.0 0.00 0.00 0.00 52 1022.2
20260903102502 71 250 5.0 0.0 0.00 0.00 0.00 52 1022.2
20260903102002 70 258 8.0 0.0 0.00 0.00 0.00 52 1022.2
20260903101501 70 265 10.0 0.0 0.00 0.00 0.00 52 1022.1
20260903101002 71 282 4.0 0.0 0.00 0.00 0.00 52 1022.2
20260903100501 71 268 6.0 0.0 0.00 0.00 0.00 52 1022.2
20260903100002 70 271 4.0 0.0 0.00 0.00 0.00 52 1022.2
20260903095501 70 238 9.0 0.0 0.00 0.00 0.00 55 1022.2
20260903095002 71 263 5.0 0.0 0.00 0.00 0.00 57 1022.2
20260903094501 71 221 2.0 0.0 0.00 0.00 0.00 59 1022.3
20260903094001 70 225 4.0 0.0 0.00 0.00 0.00 58 1022.3
20260903093502 69 243 3.0 0.0 0.00 0.00 0.00 58 1022.2
20260903093001 70 243 10.0 0.0 0.00 0.00 0.00 60 1022.1
20260903092502 70 238 2.0 0.0 0.00 0.00 0.00 59 1022.3
20260903092002 69 239 5.0 0.0 0.00 0.00 0.00 62 1022.4
20260903091502 69 251 5.0 0.0 0.00 0.00 0.00 62 1022.3
20260903091001 68 186 3.0 0.0 0.00 0.00 0.00 63 1022.4
20260903090502 68 214 4.0 0.0 0.00 0.00 0.00 63 1022.3
20260903090001 68 238 8.0 0.0 0.00 0.00 0.00 64 1022.3
20260903085502 68 247 7.0 0.0 0.00 0.00 0.00 63 1022.4
20260903085002 67 278 6.0 0.0 0.00 0.00 0.00 64 1022.5
20260903084501 67 248 6.0 0.0 0.00 0.00 0.00 63 1022.5
20260903084002 67 248 6.0 0.0 0.00 0.00 0.00 65 1022.6
20260903083501 67 241 4.0 0.0 0.00 0.00 0.00 64 1022.6
20260903083002 67 273 3.0 0.0 0.00 0.00 0.00 64 1022.5
20260903082501 67 259 4.0 0.0 0.00 0.00 0.00 64 1022.3
20260903082002 66 213 6.0 0.0 0.00 0.00 0.00 65 1022.2
20260903081501 65 206 7.0 0.0 0.00 0.00 0.00 65 1022.1
20260903081002 66 202 8.0 0.0 0.00 0.00 0.00 67 1022.0
20260903080501 65 207 6.0 0.0 0.00 0.00 0.00 66 1021.9
20260903080002 65 181 5.0 0.0 0.00 0.00 0.00 67 1022.0
20260903075502 65 232 3.0 0.0 0.00 0.00 0.00 69 1022.1
20260903075002 65 206 4.0 0.0 0.00 0.00 0.00 69 1022.1
20260903074502 64 202 6.0 0.0 0.00 0.00 0.00 69 1022.0
20260903074001 64 216 7.0 0.0 0.00 0.00 0.00 70 1022.0
20260903073502 63 186 3.0 0.0 0.00 0.00 0.00 71 1022.1
20260903073001 62 208 2.0 0.0 0.00 0.00 0.00 72 1022.1
20260903072502 62 203 3.0 0.0 0.00 0.00 0.00 74 1022.3
20260903072001 62 207 6.0 0.0 0.00 0.00 0.00 75 1022.1
20260903071502 62 186 4.0 0.0 0.00 0.00 0.00 76 1022.3
20260903071002 61 193 4.0 0.0 0.00 0.00 0.00 76 1022.4
20260903070501 61 196 3.0 0.0 0.00 0.00 0.00 77 1022.4
20260903070002 60 152 2.0 0.0 0.00 0.00 0.00 78 1022.5
20260903065501 61 187 3.0 0.0 0.00 0.00 0.00 78 1022.5
20260903065002 61 178 2.0 0.0 0.00 0.00 0.00 76 1022.7
20260903064501 62 200 1.0 0.0 0.00 0.00 0.00 74 1022.6
20260903064001 60 56 0.0 0.0 0.00 0.00 0.00 76 1022.7
20260903063501 59 0 0.0 0.0 0.00 0.00 0.00 76 1022.6
20260903063002 60 61 1.0 0.0 0.00 0.00 0.00 76 1022.5
20260903062502 59 0 0.0 0.0 0.00 0.00 0.00 78 1022.4
20260903062001 59 185 1.0 0.0 0.00 0.00 0.00 76 1022.2
20260903061502 58 62 0.0 0.0 0.00 0.00 0.00 78 1022.3